Telemetry
Timestamp Node Air Util TX Channel Util Battery Uptime Voltage Current Barometric Pressure Relative Humidity Temperature Gas Resistance
2026-05-04 20:34:24 LMBr 2.17% 13.1% 93% 3620662 4.1 V
2026-05-04 20:34:24 LMBr 2.17% 13.1% 93% 3620662 4.1 V
2026-05-04 20:34:24 LMBr 2.17% 13.1% 93% 3620662 4.1 V
2026-05-04 20:34:23 LMBr 2.17% 13.1% 93% 3620662 4.1 V
2026-05-04 20:34:23 LMBr 2.17% 13.1% 93% 3620662 4.1 V
2026-05-04 20:34:22 LMBr 2.17% 13.1% 93% 3620662 4.1 V
2026-05-04 20:33:55 SMWS 0.87% 0.0% 50% 553619 3.72 V
2026-05-04 20:33:55 SMWS 0.87% 0.0% 50% 553619 3.72 V
2026-05-04 20:33:48 ah03 0.66% 1.9% 68% 1285083 3.88 V
2026-05-04 20:33:48 ah03 0.66% 1.9% 68% 1285083 3.88 V
2026-05-04 20:33:43 ah03 0.66% 1.9% 68% 1285083 3.88 V
2026-05-04 20:33:42 ah03 0.66% 1.9% 68% 1285083 3.88 V
2026-05-04 20:33:39 ah03 0.66% 1.9% 68% 1285083 3.88 V
2026-05-04 20:33:38 ah03 0.66% 1.9% 68% 1285083 3.88 V
2026-05-04 20:33:38 ah03 0.66% 1.9% 68% 1285083 3.88 V
2026-05-04 20:33:10 RX01 0.02% 0.0% 101% 28175 0.0 V
2026-05-04 20:33:10 RX01 0.02% 0.0% 101% 28175 0.0 V
2026-05-04 20:30:41 7274 0.41% 1.7% 100% 7553547 4.12 V
2026-05-04 20:30:41 7274 0.41% 1.7% 100% 7553547 4.12 V
2026-05-04 20:30:41 7274 0.41% 1.7% 100% 7553547 4.12 V
2026-05-04 20:30:12 1ae9 24.75°C
2026-05-04 20:30:11 1ae9 24.75°C
2026-05-04 20:30:10 1ae9 24.75°C
2026-05-04 20:30:09 1ae9 24.75°C
2026-05-04 20:29:13 PMT2 23.51°C
2026-05-04 20:29:13 PMT2 23.51°C
2026-05-04 20:26:31 LRX1 1.31% 2.0% 22% 129868 3.45 V
2026-05-04 20:26:23 LRX1 1.31% 2.0% 22% 129868 3.45 V
2026-05-04 20:26:23 LRX1 1.31% 2.0% 22% 129868 3.45 V
2026-05-04 20:26:22 LRX1 1.31% 2.0% 22% 129868 3.45 V
2026-05-04 20:26:22 LRX1 1.31% 2.0% 22% 129868 3.45 V
2026-05-04 20:26:22 LRX1 1.31% 2.0% 22% 129868 3.45 V
2026-05-04 20:26:22 LRX1 1.31% 2.0% 22% 129868 3.45 V
2026-05-04 20:25:21 e536 0.2% 0.0% 97% 47329481 4.15 V
2026-05-04 20:24:23 IIXF 853.07 hPa 38.14% 22.52°C 225.87 Ohm
2026-05-04 20:24:22 IIXF 853.07 hPa 38.14% 22.52°C 225.87 Ohm
2026-05-04 20:24:10 ah01 0.4% 0.0% 94% 1698255 4.12 V
2026-05-04 20:24:10 ah01 0.4% 0.0% 94% 1698255 4.12 V
2026-05-04 20:24:06 ah01 0.4% 0.0% 94% 1698255 4.12 V
2026-05-04 20:24:05 ah01 0.4% 0.0% 94% 1698255 4.12 V
2026-05-04 20:24:05 ah01 0.4% 0.0% 94% 1698255 4.12 V
2026-05-04 20:23:58 IIXF 0.54% 0.6% 101% 35707 4.29 V
2026-05-04 20:23:57 IIXF 0.54% 0.6% 101% 35707 4.29 V
2026-05-04 20:23:55 Wdst 0.69% 2.0% 72% 4137429 3.92 V
2026-05-04 20:23:54 ah01 0.4% 0.0% 94% 1698255 4.12 V
2026-05-04 20:23:54 Wdst 0.69% 2.0% 72% 4137429 3.92 V
2026-05-04 20:23:54 Wdst 0.69% 2.0% 72% 4137429 3.92 V
2026-05-04 20:23:54 ah01 0.4% 0.0% 94% 1698255 4.12 V
2026-05-04 20:23:53 ah01 0.4% 0.0% 94% 1698255 4.12 V
2026-05-04 20:23:53 ah01 0.4% 0.0% 94% 1698255 4.12 V
2026-05-04 20:23:48 LMBt 0.28% 6.7% 49% 767370 3.71 V
2026-05-04 20:23:47 LMBt 0.28% 6.7% 49% 767370 3.71 V
2026-05-04 20:23:47 LMBt 0.28% 6.7% 49% 767370 3.71 V
2026-05-04 20:23:47 LMBt 0.28% 6.7% 49% 767370 3.71 V
2026-05-04 20:23:47 LMBt 0.28% 6.7% 49% 767370 3.71 V
2026-05-04 20:23:46 LMBt 0.28% 6.7% 49% 767370 3.71 V
2026-05-04 20:23:36 LMBt 0.28% 6.7% 49% 767370 3.71 V
2026-05-04 20:23:35 LMBt 0.28% 6.7% 49% 767370 3.71 V
2026-05-04 20:23:14 MRB1 1.94% 11.7% 101% 55527 4.24 V
2026-05-04 20:23:13 MRB1 1.94% 11.7% 101% 55527 4.24 V
2026-05-04 20:23:13 MRB1 1.94% 11.7% 101% 55527 4.24 V
2026-05-04 20:23:13 MRB1 1.94% 11.7% 101% 55527 4.24 V
2026-05-04 20:23:09 MRB1 1.94% 11.7% 101% 55527 4.24 V
2026-05-04 20:23:08 MRB1 1.94% 11.7% 101% 55527 4.24 V
2026-05-04 20:23:08 MRB1 1.94% 11.7% 101% 55527 4.24 V
2026-05-04 20:23:06 JR70 0.12% 5.5% 89% 5920491 4.05 V
2026-05-04 20:23:06 JR70 0.12% 5.5% 89% 5920491 4.05 V
2026-05-04 20:23:01 RF06 0.75% 12.8% 101% 36847 6.31 V
2026-05-04 20:23:00 RF06 0.75% 12.8% 101% 36847 6.31 V
2026-05-04 20:23:00 RF06 0.75% 12.8% 101% 36847 6.31 V
2026-05-04 20:22:55 LUK3 1.1% 5.7% 95% 14848807 4.12 V
2026-05-04 20:22:54 LUK3 1.1% 5.7% 95% 14848807 4.12 V
2026-05-04 20:22:46 PMT2 1.44% 5.6% 101% 2639353 4.2 V
2026-05-04 20:22:45 PMT2 1.44% 5.6% 101% 2639353 4.2 V
2026-05-04 20:19:58 ah03
2026-05-04 20:19:56 ah03
2026-05-04 20:19:55 ah03
2026-05-04 20:19:55 ah03
2026-05-04 20:19:12 HAM2 2.46% 5.2% 93% 957791 4.1 V
2026-05-04 20:19:12 HAM2 2.46% 5.2% 93% 957791 4.1 V
2026-05-04 20:19:12 HAM2 2.46% 5.2% 93% 957791 4.1 V
2026-05-04 20:18:18 2369 0.6% 11.1% 6% 37869 3.24 V
2026-05-04 20:18:18 2369 0.6% 11.1% 6% 37869 3.24 V
2026-05-04 20:18:18 2369 0.6% 11.1% 6% 37869 3.24 V
2026-05-04 20:18:12 2369 0.6% 11.1% 6% 37869 3.24 V
2026-05-04 20:18:11 2369 0.6% 11.1% 6% 37869 3.24 V
2026-05-04 20:18:11 2369 0.6% 11.1% 6% 37869 3.24 V
2026-05-04 20:17:15 Gert 2.34% 1.6% 86% 101951 4.03 V
2026-05-04 20:17:15 Gert 2.34% 1.6% 86% 101951 4.03 V
2026-05-04 20:17:15 Gert 2.34% 1.6% 86% 101951 4.03 V
2026-05-04 20:17:14 Gert 2.34% 1.6% 86% 101951 4.03 V
2026-05-04 20:17:13 Gert 2.34% 1.6% 86% 101951 4.03 V
2026-05-04 20:17:12 Gert 2.34% 1.6% 86% 101951 4.03 V
2026-05-04 20:17:12 Gert 2.34% 1.6% 86% 101951 4.03 V
2026-05-04 20:17:12 Gert 2.34% 1.6% 86% 101951 4.03 V
2026-05-04 20:15:42 PcL1 0.11% 0.0% 99% 93226 4.18 V
2026-05-04 20:15:42 PcL1 0.11% 0.0% 99% 93226 4.18 V
2026-05-04 20:15:09 SMWS 0.89% 4.9% 50% 552497 3.73 V
2026-05-04 20:15:09 SMWS 0.89% 4.9% 50% 552497 3.73 V
2026-05-04 20:13:57 DJMH 0.44% 0.0% 89% 6241003 4.05 V
2026-05-04 20:13:57 DJMH 0.44% 0.0% 89% 6241003 4.05 V
2026-05-04 20:13:11 LMGB 0.07% 0.0% 101% 41304 -0.0 V
2026-05-04 20:13:11 LMGB 0.07% 0.0% 101% 41304 -0.0 V
2026-05-04 20:11:33 ah03 1009.76 hPa 77.13% 15.67°C
2026-05-04 20:11:32 ah03 1009.76 hPa 77.13% 15.67°C
2026-05-04 20:11:31 ah03 1009.76 hPa 77.13% 15.67°C
2026-05-04 20:11:31 ah03 1009.76 hPa 77.13% 15.67°C
2026-05-04 20:11:31 ah03 1009.76 hPa 77.13% 15.67°C
2026-05-04 20:11:28 ah03 1009.76 hPa 77.13% 15.67°C
2026-05-04 20:11:28 ah03 1009.76 hPa 77.13% 15.67°C
2026-05-04 20:11:28 ah03 1009.76 hPa 77.13% 15.67°C
2026-05-04 20:08:57 Wdst 0.69% 2.3% 72% 4136528 3.92 V
2026-05-04 20:08:57 Wdst 0.69% 2.3% 72% 4136528 3.92 V
2026-05-04 20:08:56 Wdst 0.69% 2.3% 72% 4136528 3.92 V
2026-05-04 20:08:46 LMBs 24.58°C
2026-05-04 20:08:46 LMBs 24.58°C
2026-05-04 20:08:22 LUK5 0.94% 0.0% 101% 113440 4.29 V
2026-05-04 20:08:22 LUK5 0.94% 0.0% 101% 113440 4.29 V
2026-05-04 20:08:02 JR70 0.12% 3.8% 91% 5919588 4.07 V
2026-05-04 20:08:02 JR70 0.12% 3.8% 91% 5919588 4.07 V
2026-05-04 20:07:39 RF02 1.73% 0.0% 101% 2523718 4.21 V
2026-05-04 20:07:39 RF02 1.73% 0.0% 101% 2523718 4.21 V
2026-05-04 20:07:34 RF02 1.73% 0.0% 101% 2523718 4.21 V
2026-05-04 20:07:34 RF02 1.73% 0.0% 101% 2523718 4.21 V
2026-05-04 20:07:20 RF02 1.73% 0.0% 101% 2523718 4.21 V
2026-05-04 20:07:18 RF02 1.73% 0.0% 101% 2523718 4.21 V
2026-05-04 20:07:18 RF02 1.73% 0.0% 101% 2523718 4.21 V
2026-05-04 20:07:18 RF02 1.73% 0.0% 101% 2523718 4.21 V
2026-05-04 20:07:15 2-D 0.2% 100% 12687162 4.2 V
2026-05-04 20:07:14 2-D 0.2% 100% 12687162 4.2 V
2026-05-04 20:06:23 IIXF 853.05 hPa 36.29% 22.63°C 231.73 Ohm
2026-05-04 20:06:22 IIXF 853.05 hPa 36.29% 22.63°C 231.73 Ohm
2026-05-04 20:05:58 IIXF 0.59% 1.2% 101% 34627 4.29 V
2026-05-04 20:05:57 IIXF 0.59% 1.2% 101% 34627 4.29 V
2026-05-04 20:05:46 HT77 872.42 hPa 49.65% 22.04°C
2026-05-04 20:05:46 HT77 872.42 hPa 49.65% 22.04°C
2026-05-04 20:03:14 ah03 0.64% 5.1% 69% 1283236 3.88 V
2026-05-04 20:03:05 ah03 0.64% 5.1% 69% 1283236 3.88 V
2026-05-04 20:03:04 ah03 0.64% 5.1% 69% 1283236 3.88 V
2026-05-04 20:03:04 ah03 0.64% 5.1% 69% 1283236 3.88 V
2026-05-04 20:02:57 PTRH 0.16% 0.0% 53% 715291 3.75 V
2026-05-04 20:02:56 PTRH 0.16% 0.0% 53% 715291 3.75 V
2026-05-04 20:02:52 PTRH 0.16% 0.0% 53% 715291 3.75 V
2026-05-04 20:02:52 PTRH 0.16% 0.0% 53% 715291 3.75 V
2026-05-04 20:02:50 ah01 0.49% 4.4% 94% 1696994 4.12 V
2026-05-04 20:02:49 ah01 0.49% 4.4% 94% 1696994 4.12 V
2026-05-04 20:02:49 ah01 0.49% 4.4% 94% 1696994 4.12 V
2026-05-04 20:02:40 LRX1 1.28% 7.3% 23% 128428 3.45 V
2026-05-04 20:02:40 LRX1 1.28% 7.3% 23% 128428 3.45 V
2026-05-04 20:02:40 LRX1 1.28% 7.3% 23% 128428 3.45 V
2026-05-04 20:02:24 LRX1 1.28% 7.3% 23% 128428 3.45 V
2026-05-04 20:02:24 LRX1 1.28% 7.3% 23% 128428 3.45 V
2026-05-04 20:02:24 LRX1 1.28% 7.3% 23% 128428 3.45 V
2026-05-04 20:02:19 MELK 0.07% 0.0% 96% 4090147 4.13 V
2026-05-04 20:02:19 MELK 0.07% 0.0% 96% 4090147 4.13 V
2026-05-04 20:02:16 MELK 0.07% 0.0% 96% 4090147 4.13 V
2026-05-04 20:02:15 MELK 0.07% 0.0% 96% 4090147 4.13 V
2026-05-04 20:02:15 MELK 0.07% 0.0% 96% 4090147 4.13 V
2026-05-04 20:02:09 MELK 0.07% 0.0% 96% 4090147 4.13 V
2026-05-04 20:02:08 MELK 0.07% 0.0% 96% 4090147 4.13 V
2026-05-04 20:00:13 1ae9 25.03°C
2026-05-04 20:00:13 1ae9 25.03°C
2026-05-04 20:00:12 1ae9 25.03°C
2026-05-04 20:00:10 1ae9 25.03°C
2026-05-04 20:00:09 1ae9 25.03°C
2026-05-04 19:59:09 PMT2 23.75°C
2026-05-04 19:59:08 PMT2 23.75°C
2026-05-04 19:59:05 PMT2 23.75°C
2026-05-04 19:59:05 PMT2 23.75°C
2026-05-04 19:58:13 RF01 0.41% 4.3% 101% 172128 4.22 V
2026-05-04 19:58:13 RF01 0.41% 4.3% 101% 172128 4.22 V
2026-05-04 19:58:09 RF01 0.41% 4.3% 101% 172128 4.22 V
2026-05-04 19:58:09 RF01 0.41% 4.3% 101% 172128 4.22 V
2026-05-04 19:58:09 RF01 0.41% 4.3% 101% 172128 4.22 V
2026-05-04 19:57:08 RX01 0.02% 0.0% 101% 26014 0.0 V
2026-05-04 19:57:08 RX01 0.02% 0.0% 101% 26014 0.0 V
2026-05-04 19:56:25 SMWS 0.9% 0.0% 50% 551366 3.72 V
2026-05-04 19:56:24 SMWS 0.9% 0.0% 50% 551366 3.72 V
2026-05-04 19:54:41 7274 0.43% 0.0% 100% 7551386 4.12 V
2026-05-04 19:54:41 7274 0.43% 0.0% 100% 7551386 4.12 V
2026-05-04 19:54:41 7274 0.43% 0.0% 100% 7551386 4.12 V
2026-05-04 19:53:51 Wdst 0.7% 3.9% 72% 4135628 3.91 V
2026-05-04 19:53:51 Wdst 0.7% 3.9% 72% 4135628 3.91 V
2026-05-04 19:53:51 Wdst 0.7% 3.9% 72% 4135628 3.91 V
2026-05-04 19:53:41 LRX1 1005.33 hPa 50.06% 22.97°C
2026-05-04 19:53:41 LRX1 1005.33 hPa 50.06% 22.97°C
2026-05-04 19:53:40 LRX1 1005.33 hPa 50.06% 22.97°C
2026-05-04 19:53:40 LRX1 1005.33 hPa 50.06% 22.97°C
2026-05-04 19:53:40 LRX1 1005.33 hPa 50.06% 22.97°C
2026-05-04 19:53:40 LRX1 1005.33 hPa 50.06% 22.97°C
2026-05-04 19:52:42 PMT2 1.44% 5.1% 101% 2637552 4.2 V
2026-05-04 19:52:42 PMT2 1.44% 5.1% 101% 2637552 4.2 V
2026-05-04 19:49:25 HAM2 2.47% 11.4% 93% 955991 4.1 V
2026-05-04 19:49:25 HAM2 2.47% 11.4% 93% 955991 4.1 V
2026-05-04 19:49:17 HAM2 2.47% 11.4% 93% 955991 4.1 V
2026-05-04 19:49:16 HAM2 2.47% 11.4% 93% 955991 4.1 V
2026-05-04 19:49:15 HAM2 2.47% 11.4% 93% 955991 4.1 V
2026-05-04 19:49:13 HAM2 2.47% 11.4% 93% 955991 4.1 V
2026-05-04 19:49:13 HAM2 2.47% 11.4% 93% 955991 4.1 V
2026-05-04 19:49:12 HAM2 2.47% 11.4% 93% 955991 4.1 V
2026-05-04 19:49:12 HAM2 2.47% 11.4% 93% 955991 4.1 V
2026-05-04 19:49:08 ah03
2026-05-04 19:49:08 ah03
2026-05-04 19:49:08 ah03
2026-05-04 19:49:05 ah03
2026-05-04 19:49:04 ah03
2026-05-04 19:49:01 ah03
2026-05-04 19:49:01 ah03
2026-05-04 19:48:23 IIXF 853.03 hPa 36.38% 22.83°C 228.21 Ohm
2026-05-04 19:48:22 IIXF 853.03 hPa 36.38% 22.83°C 228.21 Ohm
2026-05-04 19:48:20 RLSC 995.28 hPa 76.3% 14.41°C
2026-05-04 19:48:20 976c 0.47% 0.9% 101% 4436795 4.22 V
2026-05-04 19:48:20 RLSC 995.28 hPa 76.3% 14.41°C
2026-05-04 19:48:20 976c 0.47% 0.9% 101% 4436795 4.22 V
2026-05-04 19:48:07 DOS 1.81% 2.2% 99% 35344 4.19 V
2026-05-04 19:48:07 DOS 1.81% 2.2% 99% 35344 4.19 V
2026-05-04 19:48:07 DOS 1.81% 2.2% 99% 35344 4.19 V
2026-05-04 19:47:58 IIXF 0.63% 1.2% 101% 33547 4.29 V
2026-05-04 19:47:57 DOS 1.81% 2.2% 99% 35344 4.19 V
2026-05-04 19:47:57 IIXF 0.63% 1.2% 101% 33547 4.29 V
2026-05-04 19:47:57 DOS 1.81% 2.2% 99% 35344 4.19 V
2026-05-04 19:46:05 RF06 0.69% 3.0% 101% 34627 6.31 V
2026-05-04 19:46:05 RF06 0.69% 3.0% 101% 34627 6.31 V
2026-05-04 19:46:01 RF06 0.69% 3.0% 101% 34627 6.31 V
2026-05-04 19:46:00 RF06 0.69% 3.0% 101% 34627 6.31 V
2026-05-04 19:46:00 RF06 0.69% 3.0% 101% 34627 6.31 V
2026-05-04 19:41:49 ah01 0.49% 0.0% 94% 1695733 4.11 V
2026-05-04 19:41:48 ah01 0.49% 0.0% 94% 1695733 4.11 V
2026-05-04 19:41:48 ah01 0.49% 0.0% 94% 1695733 4.11 V
2026-05-04 19:39:59 ah02 61.4% 18.34°C
2026-05-04 19:39:58 ah02 61.4% 18.34°C
2026-05-04 19:39:58 ah02 61.4% 18.34°C
2026-05-04 19:39:58 ah02 61.4% 18.34°C
2026-05-04 19:39:58 ah02 61.4% 18.34°C
2026-05-04 19:39:35 PcL1 0.11% 0.0% 101% 91059 4.26 V
2026-05-04 19:39:34 PcL1 0.11% 0.0% 101% 91059 4.26 V
2026-05-04 19:39:34 ah02 0.04% 19.7% 64% 61 3.84 V
2026-05-04 19:39:34 ah02 0.04% 19.7% 64% 61 3.84 V
2026-05-04 19:39:33 ah02 0.04% 19.7% 64% 61 3.84 V
2026-05-04 19:39:32 ah02 0.04% 19.7% 64% 61 3.84 V
2026-05-04 19:39:32 ah02 0.04% 19.7% 64% 61 3.84 V
2026-05-04 19:39:32 ah02 0.04% 19.7% 64% 61 3.84 V
2026-05-04 19:39:32 ah02 0.04% 19.7% 64% 61 3.84 V
2026-05-04 19:38:54 Wdst 0.54% 7.0% 72% 4134728 3.91 V
2026-05-04 19:38:53 Wdst 0.54% 7.0% 72% 4134728 3.91 V
2026-05-04 19:38:53 Wdst 0.54% 7.0% 72% 4134728 3.91 V
2026-05-04 19:38:27 LRX1 1.04% 7.3% 23% 126988 3.45 V
2026-05-04 19:38:26 LRX1 1.04% 7.3% 23% 126988 3.45 V
2026-05-04 19:38:25 LRX1 1.04% 7.3% 23% 126988 3.45 V
2026-05-04 19:38:23 LRX1 1.04% 7.3% 23% 126988 3.45 V
2026-05-04 19:38:23 LRX1 1.04% 7.3% 23% 126988 3.45 V
2026-05-04 19:38:22 SMWS 0.87% 0.0% 51% 550263 3.73 V
2026-05-04 19:38:21 SMWS 0.87% 0.0% 51% 550263 3.73 V
2026-05-04 19:38:21 SMWS 0.87% 0.0% 51% 550263 3.73 V
2026-05-04 19:38:08 BB04 1.36% 8.5% 101% 90427 -0.0 V
2026-05-04 19:38:07 BB04 1.36% 8.5% 101% 90427 -0.0 V
2026-05-04 19:38:07 BB04 1.36% 8.5% 101% 90427 -0.0 V
2026-05-04 19:38:04 BB04 1.36% 8.5% 101% 90427 -0.0 V
2026-05-04 19:38:02 BB04 1.36% 8.5% 101% 90427 -0.0 V
2026-05-04 19:38:02 BB04 1.36% 8.5% 101% 90427 -0.0 V
2026-05-04 19:37:56 JR70 0.15% 83% 5917782 4.01 V
2026-05-04 19:37:56 JR70 0.15% 83% 5917782 4.01 V
2026-05-04 19:37:15 2-D 0.15% 100% 12685362 4.2 V
2026-05-04 19:37:15 2-D 0.15% 100% 12685362 4.2 V
2026-05-04 19:37:09 LMGB 0.07% 0.0% 101% 39142 -0.0 V
2026-05-04 19:37:09 LMGB 0.07% 0.0% 101% 39142 -0.0 V
2026-05-04 19:34:22 LMBr 1.41% 18.1% 93% 3617061 4.1 V
2026-05-04 19:34:21 LMBr 1.41% 18.1% 93% 3617061 4.1 V
2026-05-04 19:34:21 2369 0.71% 13.3% 7% 35229 3.24 V
2026-05-04 19:34:21 2369 0.71% 13.3% 7% 35229 3.24 V
2026-05-04 19:34:18 2369 0.71% 13.3% 7% 35229 3.24 V
2026-05-04 19:34:18 2369 0.71% 13.3% 7% 35229 3.24 V
2026-05-04 19:34:18 2369 0.71% 13.3% 7% 35229 3.24 V
2026-05-04 19:34:12 2369 0.71% 13.3% 7% 35229 3.24 V
2026-05-04 19:34:12 2369 0.71% 13.3% 7% 35229 3.24 V
2026-05-04 19:34:11 2369 0.71% 13.3% 7% 35229 3.24 V
2026-05-04 19:34:11 2369 0.71% 13.3% 7% 35229 3.24 V
2026-05-04 19:31:46 MELK 0.07% 0.0% 95% 4088347 4.13 V
2026-05-04 19:31:46 MELK 0.07% 0.0% 95% 4088347 4.13 V
2026-05-04 19:31:46 MELK 0.07% 0.0% 95% 4088347 4.13 V
2026-05-04 19:31:46 MELK 0.07% 0.0% 95% 4088347 4.13 V
2026-05-04 19:31:44 MELK 0.07% 0.0% 95% 4088347 4.13 V
2026-05-04 19:31:42 MELK 0.07% 0.0% 95% 4088347 4.13 V
2026-05-04 19:31:42 MELK 0.07% 0.0% 95% 4088347 4.13 V
2026-05-04 19:31:42 MELK 0.07% 0.0% 95% 4088347 4.13 V
2026-05-04 19:30:55 1808 1.77% 14.1% 101% 34853 -0.0 V
2026-05-04 19:30:55 1808 1.77% 14.1% 101% 34853 -0.0 V
2026-05-04 19:30:37 1ae9 25.25°C
2026-05-04 19:30:37 1ae9 25.25°C
2026-05-04 19:30:23 IIXF 853.07 hPa 36.62% 22.81°C 230.76 Ohm
2026-05-04 19:30:22 IIXF 853.07 hPa 36.62% 22.81°C 230.76 Ohm
2026-05-04 19:30:19 1ae9 25.25°C
2026-05-04 19:30:19 1ae9 25.25°C
2026-05-04 19:30:18 RF02 1.53% 9.2% 101% 2521498 4.21 V
2026-05-04 19:30:17 RF02 1.53% 9.2% 101% 2521498 4.21 V
2026-05-04 19:30:17 RF02 1.53% 9.2% 101% 2521498 4.21 V
2026-05-04 19:30:11 1ae9 25.25°C
2026-05-04 19:30:11 1ae9 25.25°C
2026-05-04 19:29:58 IIXF 0.67% 1.7% 101% 32467 4.29 V
2026-05-04 19:29:57 IIXF 0.67% 1.7% 101% 32467 4.29 V
2026-05-04 19:29:06 PMT2 23.73°C
2026-05-04 19:29:06 PMT2 23.73°C
2026-05-04 19:27:05 PTRH 0.17% 0.0% 53% 713130 3.75 V
2026-05-04 19:27:04 PTRH 0.17% 0.0% 53% 713130 3.75 V
2026-05-04 19:26:52 PTRH 0.17% 0.0% 53% 713130 3.75 V
2026-05-04 19:26:52 PTRH 0.17% 0.0% 53% 713130 3.75 V
2026-05-04 19:23:52 Wdst 0.58% 4.1% 72% 4133827 3.92 V
2026-05-04 19:23:51 Wdst 0.58% 4.1% 72% 4133827 3.92 V
2026-05-04 19:23:51 Wdst 0.58% 4.1% 72% 4133827 3.92 V
2026-05-04 19:23:40 LMBt 0.31% 4.0% 49% 763770 3.71 V
2026-05-04 19:23:40 LMBt 0.31% 4.0% 49% 763770 3.71 V
2026-05-04 19:23:39 LMBt 0.31% 4.0% 49% 763770 3.71 V
2026-05-04 19:23:39 LMBt 0.31% 4.0% 49% 763770 3.71 V
2026-05-04 19:23:37 LMBt 0.31% 4.0% 49% 763770 3.71 V
2026-05-04 19:23:37 LMBt 0.31% 4.0% 49% 763770 3.71 V
2026-05-04 19:23:35 LMBt 0.31% 4.0% 49% 763770 3.71 V
2026-05-04 19:23:35 LMBt 0.31% 4.0% 49% 763770 3.71 V
2026-05-04 19:23:09 MRB1 1.21% 13.2% 99% 51924 4.18 V
2026-05-04 19:23:09 MRB1 1.21% 13.2% 99% 51924 4.18 V
2026-05-04 19:23:08 MRB1 1.21% 13.2% 99% 51924 4.18 V
2026-05-04 19:23:08 MRB1 1.21% 13.2% 99% 51924 4.18 V
2026-05-04 19:23:05 MRB1 1.21% 13.2% 99% 51924 4.18 V
2026-05-04 19:23:05 MRB1 1.21% 13.2% 99% 51924 4.18 V
2026-05-04 19:22:30 ZS1G 0.11% 20.2% 101% 46 4.24 V
2026-05-04 19:22:29 ZS1G 0.11% 20.2% 101% 46 4.24 V
2026-05-04 19:22:29 ZS1G 0.11% 20.2% 101% 46 4.24 V
2026-05-04 19:22:27 ZS1G 0.11% 20.2% 101% 46 4.24 V
2026-05-04 19:22:26 ZS1G 0.11% 20.2% 101% 46 4.24 V
2026-05-04 19:22:25 ZS1G 0.11% 20.2% 101% 46 4.24 V
2026-05-04 19:22:22 ZS1G 0.11% 20.2% 101% 46 4.24 V
2026-05-04 19:22:22 ZS1G 0.11% 20.2% 101% 46 4.24 V
2026-05-04 19:21:07 RX01 0.04% 0.0% 101% 23852 0.0 V
2026-05-04 19:21:07 RX01 0.04% 0.0% 101% 23852 0.0 V
2026-05-04 19:21:02 ah01 0.39% 1.1% 95% 1694472 4.12 V
2026-05-04 19:20:48 ah01 0.39% 1.1% 95% 1694472 4.12 V
2026-05-04 19:20:47 ah01 0.39% 1.1% 95% 1694472 4.12 V
2026-05-04 19:20:47 ah01 0.39% 1.1% 95% 1694472 4.12 V
2026-05-04 19:19:22 e536 0.18% 0.0% 97% 47325521 4.16 V
2026-05-04 19:19:19 HAM2 2.14% 0.0% 93% 954191 4.1 V
2026-05-04 19:19:17 HAM2 2.14% 0.0% 93% 954191 4.1 V
2026-05-04 19:19:17 HAM2 2.14% 0.0% 93% 954191 4.1 V
2026-05-04 19:19:14 HAM2 2.14% 0.0% 93% 954191 4.1 V
2026-05-04 19:19:12 SMWS 0.84% 0.0% 51% 549122 3.73 V
2026-05-04 19:19:12 SMWS 0.84% 0.0% 51% 549122 3.73 V
2026-05-04 19:19:12 HAM2 2.14% 0.0% 93% 954191 4.1 V
2026-05-04 19:19:12 HAM2 2.14% 0.0% 93% 954191 4.1 V
2026-05-04 19:19:12 HAM2 2.14% 0.0% 93% 954191 4.1 V
2026-05-04 19:18:40 7274 0.48% 1.1% 100% 7549226 4.12 V
2026-05-04 19:18:40 7274 0.48% 1.1% 100% 7549226 4.12 V
2026-05-04 19:18:40 7274 0.48% 1.1% 100% 7549226 4.12 V
2026-05-04 19:17:17 Gert 1.98% 2.1% 100% 98351 4.19 V
2026-05-04 19:17:16 Gert 1.98% 2.1% 100% 98351 4.19 V
2026-05-04 19:17:15 Gert 1.98% 2.1% 100% 98351 4.19 V
2026-05-04 19:17:14 Gert 1.98% 2.1% 100% 98351 4.19 V
2026-05-04 19:17:12 Gert 1.98% 2.1% 100% 98351 4.19 V
2026-05-04 19:17:12 Gert 1.98% 2.1% 100% 98351 4.19 V
2026-05-04 19:17:12 Gert 1.98% 2.1% 100% 98351 4.19 V
2026-05-04 19:17:12 Gert 1.98% 2.1% 100% 98351 4.19 V
2026-05-04 19:15:37 LAM2 -200.22 hPa 100.0% 182.1°C
2026-05-04 19:15:30 LAM2 -200.22 hPa 100.0% 182.1°C
2026-05-04 19:15:30 LAM2 -200.22 hPa 100.0% 182.1°C
2026-05-04 19:15:30 LAM2 -200.22 hPa 100.0% 182.1°C
2026-05-04 19:15:30 LAM2 -200.22 hPa 100.0% 182.1°C
2026-05-04 19:15:14 LAM2 1.55% 7.8% 101% 128307 4.23 V
2026-05-04 19:15:10 LAM2 1.55% 7.8% 101% 128307 4.23 V
2026-05-04 19:15:10 LAM2 1.55% 7.8% 101% 128307 4.23 V
2026-05-04 19:15:10 LAM2 1.55% 7.8% 101% 128307 4.23 V
2026-05-04 19:15:10 LAM2 1.55% 7.8% 101% 128307 4.23 V
2026-05-04 19:14:23 LRX1 0.78% 4.5% 20% 125548 3.43 V
2026-05-04 19:14:23 LRX1 0.78% 4.5% 20% 125548 3.43 V
2026-05-04 19:14:23 LRX1 0.78% 4.5% 20% 125548 3.43 V
2026-05-04 19:14:23 LRX1 0.78% 4.5% 20% 125548 3.43 V
2026-05-04 19:14:09 htec 4.17% 6.7% 101% 37008 4.28 V
2026-05-04 19:14:07 htec 4.17% 6.7% 101% 37008 4.28 V
2026-05-04 19:14:07 htec 4.17% 6.7% 101% 37008 4.28 V
2026-05-04 19:13:53 DJMH 0.35% 3.4% 90% 6237403 4.05 V
2026-05-04 19:13:53 DJMH 0.35% 3.4% 90% 6237403 4.05 V
2026-05-04 19:12:23 IIXF 852.94 hPa 36.17% 22.82°C 235.36 Ohm
2026-05-04 19:12:22 IIXF 852.94 hPa 36.17% 22.82°C 235.36 Ohm
2026-05-04 19:11:57 IIXF 0.68% 1.2% 101% 31386 4.29 V
2026-05-04 19:11:57 IIXF 0.68% 1.2% 101% 31386 4.29 V
2026-05-04 19:11:46 HT77 872.32 hPa 49.56% 22.76°C
2026-05-04 19:11:46 HT77 872.32 hPa 49.56% 22.76°C
2026-05-04 19:08:53 Wdst 0.51% 2.0% 73% 4132927 3.92 V
2026-05-04 19:08:52 Wdst 0.51% 2.0% 73% 4132927 3.92 V
2026-05-04 19:08:52 Wdst 0.51% 2.0% 73% 4132927 3.92 V
2026-05-04 19:08:46 LMBs 24.93°C
2026-05-04 19:08:46 LMBs 24.93°C
2026-05-04 19:07:50 JR70 0.23% 92% 5915976 4.08 V
2026-05-04 19:07:50 JR70 0.23% 92% 5915976 4.08 V
2026-05-04 19:07:14 2-D 0.18% 101% 12683562 4.22 V
2026-05-04 19:07:14 2-D 0.18% 101% 12683562 4.22 V
2026-05-04 19:06:26 8e30 1.09% 1.9% 101% 683929 4.31 V
2026-05-04 19:06:26 8e30 1.09% 1.9% 101% 683929 4.31 V
2026-05-04 19:05:42 LRX1 1005.27 hPa 55.1% 21.33°C
2026-05-04 19:05:40 LRX1 1005.27 hPa 55.1% 21.33°C
2026-05-04 19:05:40 LRX1 1005.27 hPa 55.1% 21.33°C
2026-05-04 19:05:40 LRX1 1005.27 hPa 55.1% 21.33°C
2026-05-04 19:03:27 PcL1 0.14% 0.0% 98% 88891 4.17 V
2026-05-04 19:03:27 PcL1 0.14% 0.0% 98% 88891 4.17 V
2026-05-04 19:01:42 MELK 0.1% 0.0% 95% 4086547 4.13 V
2026-05-04 19:01:42 MELK 0.1% 0.0% 95% 4086547 4.13 V
2026-05-04 19:01:42 MELK 0.1% 0.0% 95% 4086547 4.13 V
2026-05-04 19:01:42 MELK 0.1% 0.0% 95% 4086547 4.13 V
2026-05-04 19:00:37 LMGB 0.08% 0.5% 101% 36949 -0.0 V
2026-05-04 19:00:37 LMGB 0.08% 0.5% 101% 36949 -0.0 V
2026-05-04 19:00:37 LMGB 0.08% 0.5% 101% 36949 -0.0 V
2026-05-04 19:00:26 SMWS 0.81% 3.1% 51% 547993 3.73 V
2026-05-04 19:00:26 SMWS 0.81% 3.1% 51% 547993 3.73 V
2026-05-04 19:00:21 1ae9 25.74°C
2026-05-04 19:00:21 1ae9 25.74°C
2026-05-04 19:00:19 RF06 0.44% 10.7% 101% 31867 6.31 V
2026-05-04 19:00:19 RF06 0.44% 10.7% 101% 31867 6.31 V
2026-05-04 19:00:09 1ae9 25.74°C
2026-05-04 19:00:09 1ae9 25.74°C
2026-05-04 19:00:02 RF06 0.44% 10.7% 101% 31867 6.31 V
2026-05-04 19:00:01 RF06 0.44% 10.7% 101% 31867 6.31 V
2026-05-04 19:00:00 RF06 0.44% 10.7% 101% 31867 6.31 V
2026-05-04 19:00:00 RF06 0.44% 10.7% 101% 31867 6.31 V
2026-05-04 18:59:46 ah01 0.36% 0.0% 94% 1693211 4.12 V
2026-05-04 18:59:46 ah01 0.36% 0.0% 94% 1693211 4.12 V
2026-05-04 18:59:45 ah01 0.36% 0.0% 94% 1693211 4.12 V
2026-05-04 18:59:07 PMT2 23.89°C
2026-05-04 18:59:06 PMT2 23.89°C
2026-05-04 18:59:05 PMT2 23.89°C
2026-05-04 18:58:45 PMT2 0.82% 4.2% 101% 2634312 4.2 V
2026-05-04 18:58:39 PMT2 0.82% 4.2% 101% 2634312 4.2 V
2026-05-04 18:58:37 PMT2 0.82% 4.2% 101% 2634312 4.2 V
2026-05-04 18:58:37 PMT2 0.82% 4.2% 101% 2634312 4.2 V
2026-05-04 18:54:23 IIXF 852.93 hPa 31.98% 22.64°C 264.77 Ohm
2026-05-04 18:54:22 IIXF 852.93 hPa 31.98% 22.64°C 264.77 Ohm
2026-05-04 18:53:57 IIXF 0.73% 0.6% 101% 30306 4.29 V
2026-05-04 18:53:57 IIXF 0.73% 0.6% 101% 30306 4.29 V
2026-05-04 18:52:54 JR70 0.23% 85% 5915073 4.02 V
2026-05-04 18:52:54 JR70 0.23% 85% 5915073 4.02 V
2026-05-04 18:52:25 4e18 0.09% 0.0% 101% 1295250 4.23 V
2026-05-04 18:52:25 4e18 0.09% 0.0% 101% 1295250 4.23 V
2026-05-04 18:51:41 RF02 1.18% 11.0% 101% 2519158 4.21 V
2026-05-04 18:51:39 RF02 1.18% 11.0% 101% 2519158 4.21 V
2026-05-04 18:51:38 RF02 1.18% 11.0% 101% 2519158 4.21 V
2026-05-04 18:51:26 RF02 1.18% 11.0% 101% 2519158 4.21 V
2026-05-04 18:51:26 RF02 1.18% 11.0% 101% 2519158 4.21 V
2026-05-04 18:51:17 RF02 1.18% 11.0% 101% 2519158 4.21 V
2026-05-04 18:51:17 RF02 1.18% 11.0% 101% 2519158 4.21 V
2026-05-04 18:51:17 RF02 1.18% 11.0% 101% 2519158 4.21 V
2026-05-04 18:50:58 PTRH 0.19% 1.9% 51% 710970 3.73 V
2026-05-04 18:50:58 PTRH 0.19% 1.9% 51% 710970 3.73 V
2026-05-04 18:50:52 PTRH 0.19% 1.9% 51% 710970 3.73 V
2026-05-04 18:50:51 PTRH 0.19% 1.9% 51% 710970 3.73 V
2026-05-04 18:50:44 HT77 0.31% 0.0% 101% 726932 4.29 V
2026-05-04 18:50:44 HT77 0.31% 0.0% 101% 726932 4.29 V
2026-05-04 18:50:23 LRX1 0.62% 3.3% 23% 124107 3.46 V
2026-05-04 18:50:22 LRX1 0.62% 3.3% 23% 124107 3.46 V
2026-05-04 18:50:22 LRX1 0.62% 3.3% 23% 124107 3.46 V
2026-05-04 18:50:22 LRX1 0.62% 3.3% 23% 124107 3.46 V
2026-05-04 18:50:22 LRX1 0.62% 3.3% 23% 124107 3.46 V
2026-05-04 18:50:22 LRX1 0.62% 3.3% 23% 124107 3.46 V
2026-05-04 18:50:13 b3c2 0.04% 7.7% 100% 65 4.19 V
2026-05-04 18:50:13 b3c2 0.04% 7.7% 100% 65 4.19 V
2026-05-04 18:49:58 tge0 1.4% 2.1% 12% 13531732 3.33 V
2026-05-04 18:49:56 tge0 1.4% 2.1% 12% 13531732 3.33 V
2026-05-04 18:49:55 tge0 1.4% 2.1% 12% 13531732 3.33 V
2026-05-04 18:49:26 tge0 1.4% 2.1% 12% 13531732 3.33 V
2026-05-04 18:49:25 tge0 1.4% 2.1% 12% 13531732 3.33 V
2026-05-04 18:49:25 tge0 1.4% 2.1% 12% 13531732 3.33 V
2026-05-04 18:49:25 tge0 1.4% 2.1% 12% 13531732 3.33 V
2026-05-04 18:49:16 HAM2 1.78% 4.0% 93% 952391 4.1 V
2026-05-04 18:49:15 HAM2 1.78% 4.0% 93% 952391 4.1 V
2026-05-04 18:49:12 HAM2 1.78% 4.0% 93% 952391 4.1 V
2026-05-04 18:49:12 HAM2 1.78% 4.0% 93% 952391 4.1 V
2026-05-04 18:49:12 HAM2 1.78% 4.0% 93% 952391 4.1 V
2026-05-04 18:48:16 976c 0.56% 0.0% 101% 4433192 4.22 V
2026-05-04 18:48:16 976c 0.56% 0.0% 101% 4433192 4.22 V
2026-05-04 18:48:10 DOS 1.27% 1.8% 101% 31744 4.2 V
2026-05-04 18:48:10 DOS 1.27% 1.8% 101% 31744 4.2 V
2026-05-04 18:48:10 DOS 1.27% 1.8% 101% 31744 4.2 V
2026-05-04 18:48:01 DOS 1.27% 1.8% 101% 31744 4.2 V
2026-05-04 18:48:00 DOS 1.27% 1.8% 101% 31744 4.2 V
2026-05-04 18:47:58 DOS 1.27% 1.8% 101% 31744 4.2 V
2026-05-04 18:47:57 DOS 1.27% 1.8% 101% 31744 4.2 V
2026-05-04 18:47:57 DOS 1.27% 1.8% 101% 31744 4.2 V
2026-05-04 18:47:54 ah03
2026-05-04 18:47:54 ah03
2026-05-04 18:47:53 ah03
2026-05-04 18:46:38 2369 0.58% 7.9% 8% 32349 3.26 V
2026-05-04 18:46:30 LMBr 0.72% 4.5% 93% 3614181 4.1 V
2026-05-04 18:46:30 LMBr 0.72% 4.5% 93% 3614181 4.1 V
2026-05-04 18:46:30 LMBr 0.72% 4.5% 93% 3614181 4.1 V
2026-05-04 18:46:23 LMBr 0.72% 4.5% 93% 3614181 4.1 V
2026-05-04 18:46:23 LMBr 0.72% 4.5% 93% 3614181 4.1 V
2026-05-04 18:46:23 LMBr 0.72% 4.5% 93% 3614181 4.1 V
2026-05-04 18:46:22 LMBr 0.72% 4.5% 93% 3614181 4.1 V
2026-05-04 18:46:22 LMBr 0.72% 4.5% 93% 3614181 4.1 V
2026-05-04 18:46:14 2369 0.58% 7.9% 8% 32349 3.26 V
2026-05-04 18:46:11 2369 0.58% 7.9% 8% 32349 3.26 V
2026-05-04 18:46:11 2369 0.58% 7.9% 8% 32349 3.26 V
2026-05-04 18:46:11 2369 0.58% 7.9% 8% 32349 3.26 V
2026-05-04 18:45:05 RX01 0.04% 2.7% 101% 21691 0.0 V
2026-05-04 18:45:05 RX01 0.04% 2.7% 101% 21691 0.0 V
2026-05-04 18:43:52 DJMH 0.32% 0.0% 90% 6235603 4.06 V
2026-05-04 18:43:52 DJMH 0.32% 0.0% 90% 6235603 4.06 V
2026-05-04 18:42:42 SMWS 0.83% 0.0% 53% 546910 3.74 V
2026-05-04 18:42:42 SMWS 0.83% 0.0% 53% 546910 3.74 V
2026-05-04 18:42:40 7274 0.62% 1.1% 100% 7547065 4.12 V
2026-05-04 18:42:40 7274 0.62% 1.1% 100% 7547065 4.12 V
2026-05-04 18:42:40 7274 0.62% 1.1% 100% 7547065 4.12 V
2026-05-04 18:41:40 CLA1 2.73% 1.9% 101% 542311 4.14 V
2026-05-04 18:41:39 CLA1 2.73% 1.9% 101% 542311 4.14 V
2026-05-04 18:41:33 CLA1 2.73% 1.9% 101% 542311 4.14 V
2026-05-04 18:41:33 CLA1 2.73% 1.9% 101% 542311 4.14 V
2026-05-04 18:41:26 CLA1 2.73% 1.9% 101% 542311 4.14 V
2026-05-04 18:41:26 CLA1 2.73% 1.9% 101% 542311 4.14 V
2026-05-04 18:41:25 CLA1 2.73% 1.9% 101% 542311 4.14 V
2026-05-04 18:41:25 CLA1 2.73% 1.9% 101% 542311 4.14 V
2026-05-04 18:38:49 Wdst 0.45% 3.3% 72% 4131127 3.92 V
2026-05-04 18:38:49 Wdst 0.45% 3.3% 72% 4131127 3.92 V
2026-05-04 18:38:49 Wdst 0.45% 3.3% 72% 4131127 3.92 V
2026-05-04 18:38:12 ah03 1009.36 hPa 74.19% 16.69°C
2026-05-04 18:38:11 ah03 1009.36 hPa 74.19% 16.69°C
2026-05-04 18:38:11 ah03 1009.36 hPa 74.19% 16.69°C
2026-05-04 18:37:41 BB04 1.02% 7.9% 101% 86825 -0.0 V
2026-05-04 18:37:41 BB04 1.02% 7.9% 101% 86825 -0.0 V
2026-05-04 18:37:39 BB04 1.02% 7.9% 101% 86825 -0.0 V
2026-05-04 18:37:38 BB04 1.02% 7.9% 101% 86825 -0.0 V
2026-05-04 18:37:36 BB04 1.02% 7.9% 101% 86825 -0.0 V
2026-05-04 18:37:36 BB04 1.02% 7.9% 101% 86825 -0.0 V
2026-05-04 18:37:36 BB04 1.02% 7.9% 101% 86825 -0.0 V
2026-05-04 18:37:30 ah02 56.42% 19.16°C
2026-05-04 18:37:29 ah02 56.42% 19.16°C
2026-05-04 18:37:29 ah02 56.42% 19.16°C
2026-05-04 18:37:29 ah02 56.42% 19.16°C
2026-05-04 18:37:29 ah02 56.42% 19.16°C
2026-05-04 18:37:13 2-D 0.29% 100% 12681762 4.19 V
2026-05-04 18:37:13 2-D 0.29% 100% 12681762 4.19 V
2026-05-04 18:37:06 ah02 0.04% 8.7% 64% 61 3.84 V
2026-05-04 18:37:04 ah02 0.04% 8.7% 64% 61 3.84 V
2026-05-04 18:37:04 ah02 0.04% 8.7% 64% 61 3.84 V
2026-05-04 18:37:04 ah02 0.04% 8.7% 64% 61 3.84 V
2026-05-04 18:36:22 IIXF 852.93 hPa 32.5% 22.7°C 265.62 Ohm
2026-05-04 18:36:22 IIXF 852.93 hPa 32.5% 22.7°C 265.62 Ohm
2026-05-04 18:36:10 1ae9 26.03°C
2026-05-04 18:36:09 1ae9 26.03°C
2026-05-04 18:35:57 IIXF 0.87% 1.2% 101% 29226 4.29 V
2026-05-04 18:35:57 IIXF 0.87% 1.2% 101% 29226 4.29 V
2026-05-04 18:35:41 LMBt 0.22% 0.0% 49% 760890 3.72 V
2026-05-04 18:35:39 LMBt 0.22% 0.0% 49% 760890 3.72 V
2026-05-04 18:35:39 LMBt 0.22% 0.0% 49% 760890 3.72 V
2026-05-04 18:35:39 LMBt 0.22% 0.0% 49% 760890 3.72 V
2026-05-04 18:35:38 LMBt 0.22% 0.0% 49% 760890 3.72 V
2026-05-04 18:35:37 LMBt 0.22% 0.0% 49% 760890 3.72 V
2026-05-04 18:35:35 LMBt 0.22% 0.0% 49% 760890 3.72 V
2026-05-04 18:35:35 LMBt 0.22% 0.0% 49% 760890 3.72 V
2026-05-04 18:35:22 PMT2 23.97°C
2026-05-04 18:35:22 PMT2 23.97°C
2026-05-04 18:35:08 PMT2 23.97°C
2026-05-04 18:35:06 PMT2 23.97°C
2026-05-04 18:35:06 PMT2 23.97°C
2026-05-04 18:34:42 PMT2 0.81% 2.2% 101% 2632872 4.2 V
2026-05-04 18:34:41 PMT2 0.81% 2.2% 101% 2632872 4.2 V
2026-05-04 18:33:18 RLSC 994.66 hPa 76.58% 14.12°C
2026-05-04 18:33:18 RLSC 994.66 hPa 76.58% 14.12°C
2026-05-04 18:32:54 LUK3 0.9% 3.1% 95% 14842207 4.12 V
2026-05-04 18:32:54 LUK3 0.9% 3.1% 95% 14842207 4.12 V
2026-05-04 18:32:05 MELK 0.1% 0.0% 95% 4084746 4.13 V
2026-05-04 18:32:04 MELK 0.1% 0.0% 95% 4084746 4.13 V
2026-05-04 18:32:02 MELK 0.1% 0.0% 95% 4084746 4.13 V
2026-05-04 18:32:01 MELK 0.1% 0.0% 95% 4084746 4.13 V
2026-05-04 18:32:01 MELK 0.1% 0.0% 95% 4084746 4.13 V
2026-05-04 18:31:42 MELK 0.1% 0.0% 95% 4084746 4.13 V
2026-05-04 18:31:42 MELK 0.1% 0.0% 95% 4084746 4.13 V
2026-05-04 18:31:42 MELK 0.1% 0.0% 95% 4084746 4.13 V
2026-05-04 18:31:16 ah03 0.58% 0.0% 69% 1277722 3.89 V
2026-05-04 18:31:14 RF01 0.54% 1.1% 101% 166903 4.22 V
2026-05-04 18:31:14 RF01 0.54% 1.1% 101% 166903 4.22 V
2026-05-04 18:31:14 ah03 0.58% 0.0% 69% 1277722 3.89 V
2026-05-04 18:31:13 ah03 0.58% 0.0% 69% 1277722 3.89 V
2026-05-04 18:31:13 ah03 0.58% 0.0% 69% 1277722 3.89 V
2026-05-04 18:31:05 RF01 0.54% 1.1% 101% 166903 4.22 V
2026-05-04 18:31:05 RF01 0.54% 1.1% 101% 166903 4.22 V
2026-05-04 18:31:04 RF01 0.54% 1.1% 101% 166903 4.22 V
2026-05-04 18:27:20 PcL1 0.14% 0.0% 101% 86724 4.21 V
2026-05-04 18:27:20 PcL1 0.14% 0.0% 101% 86724 4.21 V
2026-05-04 18:26:31 LRX1 0.6% 2.3% 23% 122667 3.46 V
2026-05-04 18:26:29 LRX1 0.6% 2.3% 23% 122667 3.46 V
2026-05-04 18:26:29 LRX1 0.6% 2.3% 23% 122667 3.46 V
2026-05-04 18:26:28 LRX1 0.6% 2.3% 23% 122667 3.46 V
2026-05-04 18:26:23 LRX1 0.6% 2.3% 23% 122667 3.46 V
2026-05-04 18:26:23 LRX1 0.6% 2.3% 23% 122667 3.46 V
2026-05-04 18:26:23 LRX1 0.6% 2.3% 23% 122667 3.46 V
2026-05-04 18:24:37 6DAB 0.01% 5.8% 101% 45 4.21 V
2026-05-04 18:24:37 6DAB 0.01% 5.8% 101% 45 4.21 V
2026-05-04 18:24:09 LMGB 0.09% 0.5% 101% 34762 -0.0 V
2026-05-04 18:24:09 LMGB 0.09% 0.5% 101% 34762 -0.0 V
2026-05-04 18:24:07 SMWS 0.81% 8.5% 53% 545808 3.75 V
2026-05-04 18:24:06 SMWS 0.81% 8.5% 53% 545808 3.75 V
2026-05-04 18:23:50 Wdst 0.37% 3.0% 72% 4130226 3.92 V
2026-05-04 18:23:49 Wdst 0.37% 3.0% 72% 4130226 3.92 V
2026-05-04 18:23:49 Wdst 0.37% 3.0% 72% 4130226 3.92 V
2026-05-04 18:23:02 MRB1 0.94% 0.0% 99% 48321 4.18 V
2026-05-04 18:23:02 MRB1 0.94% 0.0% 99% 48321 4.18 V
2026-05-04 18:21:27 RF02 1.54% 11.3% 101% 2517358 4.21 V
2026-05-04 18:21:19 RF02 1.54% 11.3% 101% 2517358 4.21 V
2026-05-04 18:21:17 RF02 1.54% 11.3% 101% 2517358 4.21 V
2026-05-04 18:21:17 RF02 1.54% 11.3% 101% 2517358 4.21 V
2026-05-04 18:21:17 RF02 1.54% 11.3% 101% 2517358 4.21 V
2026-05-04 18:21:03 RF06 1.01% 6.9% 101% 29527 6.31 V
2026-05-04 18:21:00 RF06 1.01% 6.9% 101% 29527 6.31 V
2026-05-04 18:21:00 RF06 1.01% 6.9% 101% 29527 6.31 V
2026-05-04 18:21:00 RF06 1.01% 6.9% 101% 29527 6.31 V
2026-05-04 18:20:49 LMBs 25.29°C
2026-05-04 18:20:49 LMBs 25.29°C
2026-05-04 18:19:14 HAM2 2.09% 0.0% 93% 950591 4.1 V
2026-05-04 18:19:14 HAM2 2.09% 0.0% 93% 950591 4.1 V
2026-05-04 18:19:12 HAM2 2.09% 0.0% 93% 950591 4.1 V
2026-05-04 18:19:12 HAM2 2.09% 0.0% 93% 950591 4.1 V
2026-05-04 18:19:12 HAM2 2.09% 0.0% 93% 950591 4.1 V
2026-05-04 18:18:23 IIXF 853.04 hPa 31.97% 22.91°C 269.51 Ohm
2026-05-04 18:18:22 IIXF 853.04 hPa 31.97% 22.91°C 269.51 Ohm
2026-05-04 18:17:57 IIXF 0.95% 1.2% 101% 28146 4.29 V
2026-05-04 18:17:57 IIXF 0.95% 1.2% 101% 28146 4.29 V
2026-05-04 18:17:43 HT77 872.25 hPa 48.81% 23.4°C
2026-05-04 18:17:42 LRX1 1005.03 hPa 55.29% 20.93°C
2026-05-04 18:17:42 HT77 872.25 hPa 48.81% 23.4°C
2026-05-04 18:17:42 LRX1 1005.03 hPa 55.29% 20.93°C
2026-05-04 18:17:39 LRX1 1005.03 hPa 55.29% 20.93°C
2026-05-04 18:17:39 LRX1 1005.03 hPa 55.29% 20.93°C
2026-05-04 18:17:39 LRX1 1005.03 hPa 55.29% 20.93°C
2026-05-04 18:17:39 LRX1 1005.03 hPa 55.29% 20.93°C
2026-05-04 18:17:01 GR02 0.06% 8.6% 101% 61 4.4 V
2026-05-04 18:17:01 GR02 0.06% 8.6% 101% 61 4.4 V
2026-05-04 18:16:37 GR02 0.06% 8.6% 101% 61 4.4 V
2026-05-04 18:16:35 GR02 0.06% 8.6% 101% 61 4.4 V
2026-05-04 18:16:35 GR02 0.06% 8.6% 101% 61 4.4 V
2026-05-04 18:16:34 GR02 0.06% 8.6% 101% 61 4.4 V
2026-05-04 18:16:34 GR02 0.06% 8.6% 101% 61 4.4 V
2026-05-04 18:16:25 4e18 0.09% 0.0% 101% 1293089 4.23 V
2026-05-04 18:16:25 4e18 0.09% 0.0% 101% 1293089 4.23 V
2026-05-04 18:16:20 2369 1.17% 4.5% 8% 30549 3.27 V
2026-05-04 18:16:20 2369 1.17% 4.5% 8% 30549 3.27 V
2026-05-04 18:16:18 2369 1.17% 4.5% 8% 30549 3.27 V
2026-05-04 18:16:18 2369 1.17% 4.5% 8% 30549 3.27 V
2026-05-04 18:16:12 2369 1.17% 4.5% 8% 30549 3.27 V
2026-05-04 18:16:11 2369 1.17% 4.5% 8% 30549 3.27 V
2026-05-04 18:16:11 2369 1.17% 4.5% 8% 30549 3.27 V
2026-05-04 18:14:51 PTRH 0.17% 0.0% 56% 708810 3.77 V
2026-05-04 18:14:51 PTRH 0.17% 0.0% 56% 708810 3.77 V
2026-05-04 18:13:19 e536 0.29% 0.0% 97% 47321561 4.16 V
2026-05-04 18:12:18 1ae9 26.38°C
2026-05-04 18:12:10 1ae9 26.38°C
2026-05-04 18:12:09 1ae9 26.38°C
2026-05-04 18:12:09 1ae9 26.38°C
2026-05-04 18:11:32 1808 1.63% 9.0% 101% 30112 -0.0 V
2026-05-04 18:11:32 1808 1.63% 9.0% 101% 30112 -0.0 V
2026-05-04 18:11:14 PMT2 24.37°C
2026-05-04 18:11:14 PMT2 24.37°C
2026-05-04 18:11:11 PMT2 24.37°C
2026-05-04 18:11:10 PMT2 24.37°C
2026-05-04 18:11:09 PMT2 24.37°C
2026-05-04 18:11:01 PMT2 0.86% 4.9% 101% 2631431 4.2 V
2026-05-04 18:11:00 PMT2 0.86% 4.9% 101% 2631431 4.2 V
2026-05-04 18:10:42 PMT2 0.86% 4.9% 101% 2631431 4.2 V
2026-05-04 18:10:42 PMT2 0.86% 4.9% 101% 2631431 4.2 V
2026-05-04 18:09:04 RX01 0.02% 1.0% 101% 19529 0.0 V
2026-05-04 18:09:03 RX01 0.02% 1.0% 101% 19529 0.0 V
2026-05-04 18:07:46 ah03 1009.28 hPa 74.87% 16.87°C
2026-05-04 18:07:46 ah03 1009.28 hPa 74.87% 16.87°C
2026-05-04 18:07:45 ah03 1009.28 hPa 74.87% 16.87°C
2026-05-04 18:07:45 ah03 1009.28 hPa 74.87% 16.87°C
2026-05-04 18:07:15 2-D 0.24% 101% 12679961 4.25 V
2026-05-04 18:07:14 2-D 0.24% 101% 12679961 4.25 V
2026-05-04 18:06:40 7274 0.55% 2.3% 100% 7544905 4.12 V
2026-05-04 18:06:39 7274 0.55% 2.3% 100% 7544905 4.12 V
2026-05-04 18:06:39 7274 0.55% 2.3% 100% 7544905 4.12 V
2026-05-04 18:04:55 SMWS 0.83% 2.8% 53% 544644 3.75 V
2026-05-04 18:04:55 SMWS 0.83% 2.8% 53% 544644 3.75 V
2026-05-04 18:02:22 LRX1 0.68% 3.1% 24% 121227 3.47 V
2026-05-04 18:02:22 LRX1 0.68% 3.1% 24% 121227 3.47 V
2026-05-04 18:02:21 LRX1 0.68% 3.1% 24% 121227 3.47 V
2026-05-04 18:02:21 LRX1 0.68% 3.1% 24% 121227 3.47 V
2026-05-04 18:02:21 LRX1 0.68% 3.1% 24% 121227 3.47 V
2026-05-04 18:00:32 ah03 0.57% 4.1% 70% 1275868 3.89 V
2026-05-04 18:00:32 ah03 0.57% 4.1% 70% 1275868 3.89 V
2026-05-04 18:00:28 ah03 0.57% 4.1% 70% 1275868 3.89 V
2026-05-04 18:00:28 ah03 0.57% 4.1% 70% 1275868 3.89 V
2026-05-04 18:00:25 ah03 0.57% 4.1% 70% 1275868 3.89 V
2026-05-04 18:00:25 ah03 0.57% 4.1% 70% 1275868 3.89 V
2026-05-04 18:00:24 ah03 0.57% 4.1% 70% 1275868 3.89 V
2026-05-04 18:00:24 ah03 0.57% 4.1% 70% 1275868 3.89 V
2026-05-04 18:00:22 IIXF 853.13 hPa 32.6% 22.98°C 269.96 Ohm
2026-05-04 18:00:22 IIXF 853.13 hPa 32.6% 22.98°C 269.96 Ohm
2026-05-04 17:59:57 IIXF 0.89% 1.2% 101% 27066 4.29 V
2026-05-04 17:59:57 IIXF 0.89% 1.2% 101% 27066 4.29 V
2026-05-04 17:59:43 HT77 872.1 hPa 48.88% 23.68°C
2026-05-04 17:59:43 HT77 872.1 hPa 48.88% 23.68°C
2026-05-04 17:58:40 L1 2.5% 9.9% 101% 167838 4.24 V
2026-05-04 17:58:38 L1 2.5% 9.9% 101% 167838 4.24 V
2026-05-04 17:58:25 4e18 0.09% 0.0% 101% 1292009 4.22 V
2026-05-04 17:58:24 4e18 0.09% 0.0% 101% 1292009 4.22 V
2026-05-04 17:57:59 L1 2.5% 9.9% 101% 167838 4.24 V
2026-05-04 17:57:58 L1 2.5% 9.9% 101% 167838 4.24 V
2026-05-04 17:57:58 L1 2.5% 9.9% 101% 167838 4.24 V
2026-05-04 17:57:13 RF67 0.03% 4.8% 0% 65 3.4 V
2026-05-04 17:57:13 RF67 0.03% 4.8% 0% 65 3.4 V
2026-05-04 17:57:13 RF67 0.03% 4.8% 0% 65 3.4 V
2026-05-04 17:56:50 ah01 0.59% 0.0% 94% 1689427 4.12 V
2026-05-04 17:56:50 ah01 0.59% 0.0% 94% 1689427 4.12 V
2026-05-04 17:56:47 ah01 0.59% 0.0% 94% 1689427 4.12 V
2026-05-04 17:56:47 ah01 0.59% 0.0% 94% 1689427 4.12 V
2026-05-04 17:56:46 ah01 0.59% 0.0% 94% 1689427 4.12 V
2026-05-04 17:56:46 ah01 0.59% 0.0% 94% 1689427 4.12 V
2026-05-04 17:52:35 JR70 0.06% 86% 5911461 4.03 V
2026-05-04 17:52:35 JR70 0.06% 86% 5911461 4.03 V
2026-05-04 17:52:24 LAM2 -200.22 hPa 100.0% 182.1°C
2026-05-04 17:52:23 LAM2 -200.22 hPa 100.0% 182.1°C
2026-05-04 17:52:23 LAM2 -200.22 hPa 100.0% 182.1°C
2026-05-04 17:52:23 LAM2 -200.22 hPa 100.0% 182.1°C
2026-05-04 17:52:13 LAM2 1.75% 8.9% 101% 123327 4.31 V
2026-05-04 17:52:11 LAM2 1.75% 8.9% 101% 123327 4.31 V
2026-05-04 17:52:11 LAM2 1.75% 8.9% 101% 123327 4.31 V
2026-05-04 17:52:10 LAM2 1.75% 8.9% 101% 123327 4.31 V
2026-05-04 17:52:10 LAM2 1.75% 8.9% 101% 123327 4.31 V
2026-05-04 17:51:36 LMBr 1.28% 0.9% 93% 3610881 4.1 V
2026-05-04 17:51:35 LMBr 1.28% 0.9% 93% 3610881 4.1 V
2026-05-04 17:51:30 LMBr 1.28% 0.9% 93% 3610881 4.1 V
2026-05-04 17:51:29 LMBr 1.28% 0.9% 93% 3610881 4.1 V
2026-05-04 17:51:26 LMBr 1.28% 0.9% 93% 3610881 4.1 V
2026-05-04 17:51:26 LMBr 1.28% 0.9% 93% 3610881 4.1 V
2026-05-04 17:51:25 LMBr 1.28% 0.9% 93% 3610881 4.1 V
2026-05-04 17:51:25 LMBr 1.28% 0.9% 93% 3610881 4.1 V
2026-05-04 17:51:25 LMBr 1.28% 0.9% 93% 3610881 4.1 V
2026-05-04 17:51:12 PcL1 0.11% 0.0% 101% 84556 4.28 V
2026-05-04 17:51:11 PcL1 0.11% 0.0% 101% 84556 4.28 V
2026-05-04 17:49:12 HAM2 2.4% 9.4% 93% 948790 4.1 V
2026-05-04 17:49:11 HAM2 2.4% 9.4% 93% 948790 4.1 V
2026-05-04 17:49:11 HAM2 2.4% 9.4% 93% 948790 4.1 V
2026-05-04 17:48:36 RF02 1.58% 13.2% 101% 2515377 4.21 V
2026-05-04 17:48:35 RF02 1.58% 13.2% 101% 2515377 4.21 V
2026-05-04 17:48:35 RF02 1.58% 13.2% 101% 2515377 4.21 V
2026-05-04 17:48:27 RF02 1.58% 13.2% 101% 2515377 4.21 V
2026-05-04 17:48:27 RF02 1.58% 13.2% 101% 2515377 4.21 V
2026-05-04 17:48:17 RF02 1.58% 13.2% 101% 2515377 4.21 V
2026-05-04 17:48:17 RF02 1.58% 13.2% 101% 2515377 4.21 V
2026-05-04 17:48:17 RF02 1.58% 13.2% 101% 2515377 4.21 V
2026-05-04 17:48:08 976c 0.72% 3.2% 101% 4429584 4.22 V
2026-05-04 17:48:08 976c 0.72% 3.2% 101% 4429584 4.22 V
2026-05-04 17:48:03 DOS 1.76% 2.2% 99% 28143 4.18 V
2026-05-04 17:48:02 DOS 1.76% 2.2% 99% 28143 4.18 V
2026-05-04 17:47:59 DOS 1.76% 2.2% 99% 28143 4.18 V
2026-05-04 17:47:57 DOS 1.76% 2.2% 99% 28143 4.18 V
2026-05-04 17:47:57 DOS 1.76% 2.2% 99% 28143 4.18 V
2026-05-04 17:47:19 LMGB 0.07% 0.0% 101% 32552 -0.0 V
2026-05-04 17:47:18 LMGB 0.07% 0.0% 101% 32552 -0.0 V
2026-05-04 17:46:43 SMWS 0.8% 0.0% 53% 543547 3.75 V
2026-05-04 17:46:43 SMWS 0.8% 0.0% 53% 543547 3.75 V
2026-05-04 17:46:11 2369 1.08% 6.8% 9% 28749 3.28 V
2026-05-04 17:46:11 2369 1.08% 6.8% 9% 28749 3.28 V
2026-05-04 17:46:11 2369 1.08% 6.8% 9% 28749 3.28 V
2026-05-04 17:43:51 DJMH 0.37% 2.3% 90% 6232002 4.06 V
2026-05-04 17:43:51 DJMH 0.37% 2.3% 90% 6232002 4.06 V
2026-05-04 17:42:22 IIXF 853.1 hPa 31.46% 22.95°C 276.97 Ohm
2026-05-04 17:42:22 IIXF 853.1 hPa 31.46% 22.95°C 276.97 Ohm
2026-05-04 17:42:20 1ae9 27.09°C
2026-05-04 17:42:20 1ae9 27.09°C
2026-05-04 17:42:15 1ae9 27.09°C
2026-05-04 17:42:09 1ae9 27.09°C
2026-05-04 17:42:09 1ae9 27.09°C
2026-05-04 17:42:02 RF06 1.11% 10.6% 101% 27187 6.31 V
2026-05-04 17:42:00 RF06 1.11% 10.6% 101% 27187 6.31 V
2026-05-04 17:42:00 RF06 1.11% 10.6% 101% 27187 6.31 V
2026-05-04 17:42:00 RF06 1.11% 10.6% 101% 27187 6.31 V
2026-05-04 17:41:57 IIXF 0.92% 3.3% 101% 25986 4.29 V
2026-05-04 17:41:57 IIXF 0.92% 3.3% 101% 25986 4.29 V
2026-05-04 17:41:42 HT77 872.18 hPa 48.47% 24.08°C
2026-05-04 17:41:42 HT77 872.18 hPa 48.47% 24.08°C
2026-05-04 17:41:14 PMT2 24.0°C
2026-05-04 17:41:05 PMT2 24.0°C
2026-05-04 17:41:04 PMT2 24.0°C
2026-05-04 17:40:48 htec 4.55% 4.1% 101% 31409 4.24 V
2026-05-04 17:40:48 htec 4.55% 4.1% 101% 31409 4.24 V
2026-05-04 17:40:42 PMT2 1.27% 3.1% 101% 2629631 4.2 V
2026-05-04 17:40:42 PMT2 1.27% 3.1% 101% 2629631 4.2 V
2026-05-04 17:40:24 4e18 0.09% 0.0% 101% 1290929 4.23 V
2026-05-04 17:40:24 4e18 0.09% 0.0% 101% 1290929 4.23 V
2026-05-04 17:39:04 Wdst 0.88% 3.2% 73% 4127526 3.92 V
2026-05-04 17:39:04 Wdst 0.88% 3.2% 73% 4127526 3.92 V
2026-05-04 17:39:04 Wdst 0.88% 3.2% 73% 4127526 3.92 V
2026-05-04 17:38:56 PTRH 0.24% 0.0% 54% 706650 3.76 V
2026-05-04 17:38:56 PTRH 0.24% 0.0% 54% 706650 3.76 V
2026-05-04 17:38:51 PTRH 0.24% 0.0% 54% 706650 3.76 V
2026-05-04 17:38:51 PTRH 0.24% 0.0% 54% 706650 3.76 V
2026-05-04 17:38:42 HT77 0.28% 0.0% 101% 722612 4.29 V
2026-05-04 17:38:41 HT77 0.28% 0.0% 101% 722612 4.29 V
2026-05-04 17:38:03 RF67 0.03% 11.6% 101% 65 3.41 V
2026-05-04 17:38:03 RF67 0.03% 11.6% 101% 65 3.41 V
2026-05-04 17:38:03 RF67 0.03% 11.6% 101% 65 3.41 V
2026-05-04 17:37:37 JR70 0.1% 89% 5910558 4.04 V
2026-05-04 17:37:37 JR70 0.1% 89% 5910558 4.04 V
2026-05-04 17:37:13 2-D 0.19% 101% 12678161 4.2 V
2026-05-04 17:37:12 2-D 0.19% 101% 12678161 4.2 V
2026-05-04 17:36:05 BB04 1.26% 2.0% 101% 83135 -0.0 V
2026-05-04 17:36:04 BB04 1.26% 2.0% 101% 83135 -0.0 V
2026-05-04 17:36:04 BB04 1.26% 2.0% 101% 83135 -0.0 V
2026-05-04 17:36:00 LMBt 0.38% 3.0% 51% 757289 3.73 V
2026-05-04 17:35:59 LMBt 0.38% 3.0% 51% 757289 3.73 V
2026-05-04 17:35:58 LMBt 0.38% 3.0% 51% 757289 3.73 V
2026-05-04 17:35:42 LMBt 0.38% 3.0% 51% 757289 3.73 V
2026-05-04 17:35:41 LMBt 0.38% 3.0% 51% 757289 3.73 V
2026-05-04 17:35:41 LMBt 0.38% 3.0% 51% 757289 3.73 V
2026-05-04 17:35:41 LMBt 0.38% 3.0% 51% 757289 3.73 V
2026-05-04 17:35:35 LMBt 0.38% 3.0% 51% 757289 3.73 V
2026-05-04 17:35:35 LMBt 0.38% 3.0% 51% 757289 3.73 V
2026-05-04 17:35:11 ah02 56.35% 20.52°C
2026-05-04 17:35:11 ah02 56.35% 20.52°C
2026-05-04 17:35:10 ah02 56.35% 20.52°C
2026-05-04 17:35:07 ah02 56.35% 20.52°C
2026-05-04 17:35:07 ah02 56.35% 20.52°C
2026-05-04 17:35:00 LRX1 1.31% 4.0% 24% 119426 3.47 V
2026-05-04 17:35:00 ah01 0.43% 2.0% 94% 1687986 4.11 V
2026-05-04 17:34:59 ah01 0.43% 2.0% 94% 1687986 4.11 V
2026-05-04 17:34:59 LRX1 1.31% 4.0% 24% 119426 3.47 V
2026-05-04 17:34:50 ah02 0.04% 15.6% 66% 61 3.86 V
2026-05-04 17:34:49 ah02 0.04% 15.6% 66% 61 3.86 V
2026-05-04 17:34:49 ah02 0.04% 15.6% 66% 61 3.86 V
2026-05-04 17:34:43 ah02 0.04% 15.6% 66% 61 3.86 V
2026-05-04 17:34:42 ah02 0.04% 15.6% 66% 61 3.86 V
2026-05-04 17:34:42 ah02 0.04% 15.6% 66% 61 3.86 V
2026-05-04 17:34:16 RF67 0.07% 17.0% 101% 65 3.41 V
2026-05-04 17:34:15 RF67 0.07% 17.0% 101% 65 3.41 V
2026-05-04 17:34:15 RF67 0.07% 17.0% 101% 65 3.41 V
2026-05-04 17:33:18 RLSC 994.48 hPa 74.78% 16.79°C
2026-05-04 17:33:18 RLSC 994.48 hPa 74.78% 16.79°C
2026-05-04 17:33:02 RX01 0.02% 0.0% 101% 17367 0.0 V
2026-05-04 17:33:02 RX01 0.02% 0.0% 101% 17367 0.0 V
2026-05-04 17:32:42 ah01 0.43% 2.0% 94% 1687986 4.11 V
2026-05-04 17:32:41 ah01 0.43% 2.0% 94% 1687986 4.11 V
2026-05-04 17:32:41 ah01 0.43% 2.0% 94% 1687986 4.11 V
2026-05-04 17:32:30 LRX1 1.31% 4.0% 24% 119426 3.47 V
2026-05-04 17:32:28 LRX1 1.31% 4.0% 24% 119426 3.47 V
2026-05-04 17:32:26 LRX1 1.31% 4.0% 24% 119426 3.47 V
2026-05-04 17:32:26 LRX1 1.31% 4.0% 24% 119426 3.47 V
2026-05-04 17:32:25 LRX1 1.31% 4.0% 24% 119426 3.47 V
2026-05-04 17:32:25 LRX1 1.31% 4.0% 24% 119426 3.47 V
2026-05-04 17:30:39 7274 0.57% 0.0% 100% 7542745 4.12 V
2026-05-04 17:30:39 7274 0.57% 0.0% 100% 7542745 4.12 V
2026-05-04 17:30:39 7274 0.57% 0.0% 100% 7542745 4.12 V
2026-05-04 17:30:31 RF67 0.03% 8.2% 101% 65 3.41 V
2026-05-04 17:30:30 RF67 0.03% 8.2% 101% 65 3.41 V
2026-05-04 17:30:30 RF67 0.03% 8.2% 101% 65 3.41 V
2026-05-04 17:30:29 ah03 0.55% 3.0% 70% 1274066 3.9 V
2026-05-04 17:30:29 ah03 0.55% 3.0% 70% 1274066 3.9 V
2026-05-04 17:30:29 ah03 0.55% 3.0% 70% 1274066 3.9 V
2026-05-04 17:28:35 SMWS 0.8% 1.9% 54% 542462 3.76 V
2026-05-04 17:28:34 SMWS 0.8% 1.9% 54% 542462 3.76 V
2026-05-04 17:26:50 RF67 0.07% 13.2% 101% 65 3.41 V
2026-05-04 17:26:50 RF67 0.07% 13.2% 101% 65 3.41 V
2026-05-04 17:26:44 RF67 0.07% 13.2% 101% 65 3.41 V
2026-05-04 17:26:44 RF67 0.07% 13.2% 101% 65 3.41 V
2026-05-04 17:26:44 RF67 0.07% 13.2% 101% 65 3.41 V
2026-05-04 17:24:22 IIXF 853.12 hPa 31.23% 23.04°C 277.2 Ohm
2026-05-04 17:24:22 IIXF 853.12 hPa 31.23% 23.04°C 277.2 Ohm
2026-05-04 17:23:57 IIXF 0.83% 0.6% 101% 24906 4.29 V
2026-05-04 17:23:57 IIXF 0.83% 0.6% 101% 24906 4.29 V
2026-05-04 17:23:36 RF67 0.03% 18.3% 101% 65 3.41 V
2026-05-04 17:23:36 RF67 0.03% 18.3% 101% 65 3.41 V
2026-05-04 17:23:14 MRB1 1.44% 11.5% 98% 44718 4.17 V
2026-05-04 17:23:13 MRB1 1.44% 11.5% 98% 44718 4.17 V
2026-05-04 17:23:00 MRB1 1.44% 11.5% 98% 44718 4.17 V
2026-05-04 17:22:59 MRB1 1.44% 11.5% 98% 44718 4.17 V
2026-05-04 17:22:58 RF67 0.03% 18.3% 101% 65 3.41 V
2026-05-04 17:22:58 RF67 0.03% 18.3% 101% 65 3.41 V
2026-05-04 17:22:57 RF67 0.03% 18.3% 101% 65 3.41 V
2026-05-04 17:20:42 HT77 0.26% 0.0% 101% 721532 4.29 V
2026-05-04 17:20:41 HT77 0.26% 0.0% 101% 721532 4.29 V
2026-05-04 17:19:22 RF67 0.03% 6.7% 101% 65 3.41 V
2026-05-04 17:19:22 RF67 0.03% 6.7% 101% 65 3.41 V
2026-05-04 17:19:17 HAM2 2.26% 5.8% 93% 946990 4.1 V
2026-05-04 17:19:16 HAM2 2.26% 5.8% 93% 946990 4.1 V
2026-05-04 17:19:16 HAM2 2.26% 5.8% 93% 946990 4.1 V
2026-05-04 17:19:14 RF67 0.03% 6.7% 101% 65 3.41 V
2026-05-04 17:19:13 RF67 0.03% 6.7% 101% 65 3.41 V
2026-05-04 17:19:13 RF67 0.03% 6.7% 101% 65 3.41 V
2026-05-04 17:19:12 HAM2 2.26% 5.8% 93% 946990 4.1 V
2026-05-04 17:19:11 HAM2 2.26% 5.8% 93% 946990 4.1 V
2026-05-04 17:19:11 HAM2 2.26% 5.8% 93% 946990 4.1 V
2026-05-04 17:18:30 RF02 1.24% 10.2% 101% 2513577 4.21 V
2026-05-04 17:18:30 RF02 1.24% 10.2% 101% 2513577 4.21 V
2026-05-04 17:18:26 RF02 1.24% 10.2% 101% 2513577 4.21 V
2026-05-04 17:18:21 RF02 1.24% 10.2% 101% 2513577 4.21 V
2026-05-04 17:18:19 RF02 1.24% 10.2% 101% 2513577 4.21 V
2026-05-04 17:18:19 RF02 1.24% 10.2% 101% 2513577 4.21 V
2026-05-04 17:18:19 RF02 1.24% 10.2% 101% 2513577 4.21 V
2026-05-04 17:18:16 RF02 1.24% 10.2% 101% 2513577 4.21 V
2026-05-04 17:18:16 RF02 1.24% 10.2% 101% 2513577 4.21 V
2026-05-04 17:17:44 LRX1 1004.86 hPa 53.4% 20.17°C
2026-05-04 17:17:43 LRX1 1004.86 hPa 53.4% 20.17°C
2026-05-04 17:17:42 LRX1 1004.86 hPa 53.4% 20.17°C
2026-05-04 17:17:39 LRX1 1004.86 hPa 53.4% 20.17°C
2026-05-04 17:17:39 LRX1 1004.86 hPa 53.4% 20.17°C
2026-05-04 17:17:38 LRX1 1004.86 hPa 53.4% 20.17°C
2026-05-04 17:17:22 Gert 1.75% 6.2% 82% 91150 4.01 V
2026-05-04 17:17:22 Gert 1.75% 6.2% 82% 91150 4.01 V
2026-05-04 17:17:11 Gert 1.75% 6.2% 82% 91150 4.01 V
2026-05-04 17:17:10 Gert 1.75% 6.2% 82% 91150 4.01 V
2026-05-04 17:17:10 Gert 1.75% 6.2% 82% 91150 4.01 V
2026-05-04 17:17:10 Gert 1.75% 6.2% 82% 91150 4.01 V
2026-05-04 17:16:15 2369 0.61% 7.5% 8% 26948 3.27 V
2026-05-04 17:16:15 2369 0.61% 7.5% 8% 26948 3.27 V
2026-05-04 17:16:11 2369 0.61% 7.5% 8% 26948 3.27 V
2026-05-04 17:16:11 2369 0.61% 7.5% 8% 26948 3.27 V
2026-05-04 17:16:11 2369 0.61% 7.5% 8% 26948 3.27 V
2026-05-04 17:15:48 RF67 0.05% 15.0% 101% 65 3.41 V
2026-05-04 17:15:30 RF67 0.05% 15.0% 101% 65 3.41 V
2026-05-04 17:15:30 RF67 0.05% 15.0% 101% 65 3.41 V
2026-05-04 17:15:30 RF67 0.05% 15.0% 101% 65 3.41 V
2026-05-04 17:15:26 RF67 0.05% 15.0% 101% 65 3.41 V
2026-05-04 17:15:26 RF67 0.05% 15.0% 101% 65 3.41 V
2026-05-04 17:15:26 RF67 0.05% 15.0% 101% 65 3.41 V
2026-05-04 17:15:04 PcL1 0.11% 0.0% 101% 82389 4.22 V
2026-05-04 17:15:04 PcL1 0.11% 0.0% 101% 82389 4.22 V
2026-05-04 17:13:18 RF01 0.64% 8.8% 101% 162220 4.25 V
2026-05-04 17:13:12 RF01 0.64% 8.8% 101% 162220 4.25 V
2026-05-04 17:13:11 RF01 0.64% 8.8% 101% 162220 4.25 V
2026-05-04 17:13:11 RF01 0.64% 8.8% 101% 162220 4.25 V
2026-05-04 17:13:01 RF01 0.64% 8.8% 101% 162220 4.25 V
2026-05-04 17:13:01 RF01 0.64% 8.8% 101% 162220 4.25 V
2026-05-04 17:13:01 RF01 0.64% 8.8% 101% 162220 4.25 V
2026-05-04 17:12:20 1ae9 27.23°C
2026-05-04 17:12:20 1ae9 27.23°C
2026-05-04 17:12:20 1ae9 27.23°C
2026-05-04 17:12:10 1ae9 27.23°C
2026-05-04 17:12:09 1ae9 27.23°C
2026-05-04 17:12:09 1ae9 27.23°C
2026-05-04 17:11:49 RF67 0.03% 16.5% 101% 65 3.41 V
2026-05-04 17:11:48 RF67 0.03% 16.5% 101% 65 3.41 V
2026-05-04 17:11:43 RF67 0.03% 16.5% 101% 65 3.41 V
2026-05-04 17:11:43 RF67 0.03% 16.5% 101% 65 3.41 V
2026-05-04 17:11:41 RF67 0.03% 16.5% 101% 65 3.41 V
2026-05-04 17:11:41 RF67 0.03% 16.5% 101% 65 3.41 V
2026-05-04 17:11:41 RF67 0.03% 16.5% 101% 65 3.41 V
2026-05-04 17:11:16 PMT2 24.11°C
2026-05-04 17:11:16 PMT2 24.11°C
2026-05-04 17:11:16 PMT2 24.11°C
2026-05-04 17:11:12 LMGB 0.11% 0.0% 101% 30385 -0.0 V
2026-05-04 17:11:12 LMGB 0.11% 0.0% 101% 30385 -0.0 V
2026-05-04 17:11:09 PMT2 24.11°C
2026-05-04 17:11:09 PMT2 24.11°C
2026-05-04 17:10:47 PMT2 1.41% 4.4% 101% 2627831 4.2 V
2026-05-04 17:10:47 PMT2 1.41% 4.4% 101% 2627831 4.2 V
2026-05-04 17:10:42 PMT2 1.41% 4.4% 101% 2627831 4.2 V
2026-05-04 17:10:41 PMT2 1.41% 4.4% 101% 2627831 4.2 V
2026-05-04 17:10:41 PMT2 1.41% 4.4% 101% 2627831 4.2 V
2026-05-04 17:10:35 RF67 0.03% 8.9% 101% 65 3.41 V
2026-05-04 17:10:35 ah01 0.48% 2.3% 94% 1686545 4.11 V
2026-05-04 17:10:34 RF67 0.03% 8.9% 101% 65 3.41 V
2026-05-04 17:10:34 ah01 0.48% 2.3% 94% 1686545 4.11 V
2026-05-04 17:10:34 RF06 0.96% 1.6% 101% 25267 6.31 V
2026-05-04 17:10:33 RF06 0.96% 1.6% 101% 25267 6.31 V
2026-05-04 17:10:33 RF06 0.96% 1.6% 101% 25267 6.31 V
2026-05-04 17:10:29 RF06 0.96% 1.6% 101% 25267 6.31 V
2026-05-04 17:10:10 RF06 0.96% 1.6% 101% 25267 6.31 V
2026-05-04 17:10:10 RF06 0.96% 1.6% 101% 25267 6.31 V
2026-05-04 17:10:04 RF06 0.96% 1.6% 101% 25267 6.31 V
2026-05-04 17:10:04 RF06 0.96% 1.6% 101% 25267 6.31 V
2026-05-04 17:10:04 SMWS 0.78% 2.0% 55% 541345 3.76 V
2026-05-04 17:10:03 SMWS 0.78% 2.0% 55% 541345 3.76 V
2026-05-04 17:10:00 RF06 0.96% 1.6% 101% 25267 6.31 V
2026-05-04 17:10:00 RF06 0.96% 1.6% 101% 25267 6.31 V
2026-05-04 17:10:00 RF06 0.96% 1.6% 101% 25267 6.31 V
2026-05-04 17:08:52 Wdst 0.97% 3.4% 72% 4125725 3.92 V
2026-05-04 17:08:52 Wdst 0.97% 3.4% 72% 4125725 3.92 V
2026-05-04 17:08:52 Wdst 0.97% 3.4% 72% 4125725 3.92 V
2026-05-04 17:08:41 ah01 0.48% 2.3% 94% 1686545 4.11 V
2026-05-04 17:08:40 ah01 0.48% 2.3% 94% 1686545 4.11 V
2026-05-04 17:08:39 ah01 0.48% 2.3% 94% 1686545 4.11 V
2026-05-04 17:07:57 RF67 0.03% 8.9% 101% 65 3.41 V
2026-05-04 17:07:56 RF67 0.03% 8.9% 101% 65 3.41 V
2026-05-04 17:07:56 RF67 0.03% 8.9% 101% 65 3.41 V
2026-05-04 17:07:13 2-D 0.29% 101% 12676361 4.23 V
2026-05-04 17:07:13 2-D 0.29% 101% 12676361 4.23 V
2026-05-04 17:06:50 1808 1.74% 3.0% 101% 26212 -0.0 V
2026-05-04 17:06:50 1808 1.74% 3.0% 101% 26212 -0.0 V
2026-05-04 17:06:26 ah03 1008.89 hPa 69.51% 17.63°C
2026-05-04 17:06:25 ah03 1008.89 hPa 69.51% 17.63°C
2026-05-04 17:06:22 IIXF 853.08 hPa 31.68% 23.23°C 266.9 Ohm
2026-05-04 17:06:22 IIXF 853.08 hPa 31.68% 23.23°C 266.9 Ohm
2026-05-04 17:06:22 ah03 1008.89 hPa 69.51% 17.63°C
2026-05-04 17:06:21 ah03 1008.89 hPa 69.51% 17.63°C
2026-05-04 17:06:21 ah03 1008.89 hPa 69.51% 17.63°C
2026-05-04 17:05:57 IIXF 0.94% 0.6% 101% 23826 4.29 V
2026-05-04 17:05:57 IIXF 0.94% 0.6% 101% 23826 4.29 V
2026-05-04 17:05:42 HT77 872.12 hPa 48.72% 24.64°C
2026-05-04 17:05:41 HT77 872.12 hPa 48.72% 24.64°C
2026-05-04 17:04:31 RF67 0.03% 4.9% 101% 65 3.41 V
2026-05-04 17:04:30 RF67 0.03% 4.9% 101% 65 3.41 V
2026-05-04 17:04:29 RF67 0.03% 4.9% 101% 65 3.41 V
2026-05-04 17:04:28 RF67 0.03% 4.9% 101% 65 3.41 V
2026-05-04 17:04:22 RF67 0.03% 4.9% 101% 65 3.41 V
2026-05-04 17:04:22 RF67 0.03% 4.9% 101% 65 3.41 V
2026-05-04 17:04:22 RF67 0.03% 4.9% 101% 65 3.41 V
2026-05-04 17:02:59 LRX1 1.21% 1.1% 24% 117626 3.47 V
Visit MeshInfo-Lite on Github. Also visit the original MeshInfo by Kevin Elliott.